Location: Stara Lesna
(49.1528°N, 20.2911°E)
Time: 10:02:09
(UTC+02:00)

Cosmos 1515 - Pass Details

Date: 13 July 2020
Orbit: 507 x 515 km, 82.5° (Epoch: 05 August)

Event Time Altitude Azimuth Distance (km) Brightness Sun altitude
Rises 01:49:41 0° 353° (N) 2,640 8.6 -17.6°
Reaches altitude 10° 01:51:51 10° 358° (N) 1,750 7.5 -17.5°
Maximum altitude 01:55:38 56° 77° (ENE) 616 4.2 -17.3°
Enters shadow 01:57:35 26° 147° (SSE) 1,042 4.9 -17.2°
